IGETXO42 Weather Reports


time (UTC)temp
C
wind
direction
speed
KPH
gust
KPH
rain 1hr
cm
rain 24hr
cm
rain mn
cm
humidity
%
barometer
mb
20260508023054 12 30 0.0 1.6 0.00 0.28 0.00 83 1009.9
20260508021557 12 91 0.0 3.2 0.00 0.28 0.00 83 1009.9
20260508020107 12 343 0.0 3.2 0.00 0.28 0.00 84 1009.9
20260508014553 12 49 0.0 3.2 0.00 0.28 0.00 84 1009.7
20260508013052 12 0 0.0 3.2 0.00 0.28 0.00 84 1010.0
20260508011554 12 98 1.6 4.8 0.00 0.28 0.00 84 1010.1
20260508010109 12 20 1.6 6.4 0.00 0.28 0.00 84 1010.2
20260508004549 12 52 1.6 6.4 0.00 0.28 0.00 84 1010.3
20260508003101 12 27 1.6 3.2 0.00 0.28 0.00 86 1010.2
20260508001557 12 60 0.0 4.8 0.00 0.28 0.00 87 1010.4
20260508000056 12 0 0.0 4.8 0.00 0.28 0.00 88 1010.6
20260507234556 12 54 0.0 4.8 0.00 0.28 0.00 88 1010.7
20260507233057 12 9 1.6 4.8 0.00 0.28 0.00 88 1010.4
20260507231553 12 0 0.0 3.2 0.00 0.28 0.00 88 1010.5
20260507230109 12 0 0.0 1.6 0.00 0.28 0.00 88 1010.6
20260507224555 13 0 0.0 3.2 0.00 0.28 0.00 88 1010.8
20260507223150 13 0 0.0 3.2 0.00 0.28 0.00 88 1010.9
20260507221552 13 0 0.0 1.6 0.00 0.28 0.00 87 1010.9
20260507220052 13 0 0.0 4.8 0.00 0.28 0.00 87 1011.0
20260507214557 13 0 0.0 1.6 0.00 0.28 0.28 87 1010.8
20260507213119 13 0 0.0 1.6 0.00 0.28 0.28 87 1010.8
20260507211552 13 0 0.0 1.6 0.00 0.28 0.28 87 1010.8
20260507210057 13 0 0.0 1.6 0.00 0.28 0.28 86 1010.8
20260507204549 13 0 0.0 0.0 0.00 0.28 0.28 85 1010.7
20260507203051 14 0 0.0 0.0 0.00 0.28 0.28 85 1010.6
20260507201603 14 102 0.0 1.6 0.00 0.28 0.28 85 1010.4
20260507200104 15 0 0.0 1.6 0.00 0.28 0.28 84 1010.3
20260507194556 15 0 0.0 0.0 0.00 0.28 0.28 84 1010.0
20260507193055 15 0 0.0 1.6 0.00 0.28 0.28 84 1010.0
20260507191552 15 0 0.0 1.6 0.00 0.28 0.28 83 1010.0
20260507190053 15 0 0.0 1.6 0.00 0.28 0.28 83 1009.9
20260507184554 15 334 0.0 0.0 0.00 0.28 0.28 82 1009.9
20260507183055 15 0 0.0 1.6 0.00 0.28 0.28 83 1009.7
20260507181556 15 0 0.0 0.0 0.00 0.28 0.28 84 1009.8
20260507180056 15 0 0.0 0.0 0.00 0.28 0.28 85 1009.5
20260507174602 15 0 0.0 0.0 0.00 0.28 0.28 85 1009.6
20260507173059 15 0 0.0 0.0 0.00 0.28 0.28 83 1009.7
20260507171603 15 0 0.0 1.6 0.00 0.28 0.28 84 1009.8
20260507170055 15 0 0.0 9.7 0.28 0.28 0.28 84 1010.4
20260507164556 15 82 0.0 4.8 0.28 0.28 0.28 83 1010.1
20260507163054 15 310 1.6 6.4 0.25 0.25 0.25 80 1010.3
20260507161609 16 0 0.0 8.0 0.25 0.25 0.25 75 1010.0
20260507154558 19 207 6.4 17.7 0.00 0.00 0.00 68 1009.7
20260507153111 20 137 1.6 11.3 0.00 0.00 0.00 67 1009.3
20260507151558 20 108 1.6 9.7 0.00 0.00 0.00 66 1009.2
20260507150054 20 131 0.0 8.0 0.00 0.00 0.00 65 1009.0
20260507144553 21 155 0.0 8.0 0.00 0.00 0.00 63 1009.2
20260507143055 22 122 1.6 8.0 0.00 0.00 0.00 61 1009.2
20260507141552 23 122 3.2 11.3 0.00 0.00 0.00 60 1009.1
20260507140053 23 126 1.6 12.9 0.00 0.00 0.00 61 1009.2
20260507134558 23 60 3.2 14.5 0.00 0.00 0.00 61 1009.4
20260507133053 23 22 1.6 11.3 0.00 0.00 0.00 60 1009.5
20260507131554 22 176 0.0 3.2 0.00 0.00 0.00 61 1009.8
20260507130105 22 126 0.0 3.2 0.00 0.00 0.00 67 1010.0
20260507124618 21 0 0.0 4.8 0.00 0.00 0.00 62 1010.3
20260507123107 21 176 1.6 4.8 0.00 0.00 0.00 65 1010.5
20260507121601 20 163 1.6 8.0 0.00 0.00 0.00 64 1010.9
20260507120100 20 221 1.6 4.8 0.00 0.00 0.00 66 1011.0
20260507114554 19 297 1.6 6.4 0.00 0.00 0.00 69 1011.3
20260507113056 18 165 4.8 9.7 0.00 0.00 0.00 67 1011.5
20260507111553 20 354 1.6 4.8 0.00 0.00 0.00 69 1011.4
20260507110054 19 288 1.6 8.0 0.00 0.00 0.00 69 1011.5
20260507104555 20 0 1.6 4.8 0.00 0.03 0.00 66 1011.7
20260507103057 20 115 0.0 6.4 0.00 0.03 0.00 66 1012.0
20260507101601 19 176 1.6 4.8 0.00 0.03 0.00 67 1012.2
20260507100106 18 139 0.0 6.4 0.00 0.03 0.00 70 1012.6
20260507094553 18 0 0.0 4.8 0.00 0.03 0.00 71 1012.8
20260507093053 16 0 0.0 4.8 0.00 0.03 0.00 73 1012.9
20260507091553 15 4 0.0 6.4 0.00 0.03 0.00 80 1013.0
20260507090052 12 0 0.0 6.4 0.00 0.03 0.00 83 1013.0
20260507084559 12 0 0.0 4.8 0.00 0.03 0.00 84 1013.1
20260507083108 11 0 0.0 4.8 0.00 0.03 0.00 85 1013.2
20260507081600 11 0 0.0 4.8 0.00 0.03 0.00 85 1013.2
20260507080055 11 0 1.6 4.8 0.00 0.03 0.00 85 1013.1
20260507074606 11 89 1.6 4.8 0.00 0.03 0.00 85 1013.5
20260507073100 11 134 1.6 9.7 0.00 0.03 0.00 84 1013.4
20260507071553 11 107 1.6 8.0 0.00 0.03 0.00 88 1013.5
20260507070056 10 31 1.6 4.8 0.00 0.03 0.00 91 1013.7
20260507064549 9 0 0.0 4.8 0.00 0.03 0.00 92 1013.7
20260507063051 8 0 1.6 4.8 0.00 0.03 0.00 92 1013.8
20260507061552 8 66 0.0 4.8 0.00 0.03 0.00 92 1013.8
20260507060052 8 0 0.0 8.0 0.00 0.03 0.00 92 1013.8
20260507054551 8 82 0.0 9.7 0.00 0.03 0.00 92 1013.8
20260507053051 8 34 0.0 6.4 0.00 0.03 0.00 92 1013.6
20260507051549 8 0 0.0 6.4 0.00 0.03 0.00 92 1013.5
20260507050057 8 142 0.0 3.2 0.00 0.03 0.00 92 1013.7
20260507044551 8 67 1.6 4.8 0.00 0.03 0.00 92 1013.9
20260507043051 8 79 0.0 4.8 0.00 0.03 0.00 92 1013.9
20260507041553 8 0 0.0 4.8 0.00 0.03 0.00 92 1013.8
20260507040054 8 124 0.0 4.8 0.00 0.03 0.00 92 1013.9
20260507034553 8 0 0.0 3.2 0.00 0.03 0.00 92 1013.9
20260507033054 8 47 0.0 4.8 0.00 0.03 0.00 92 1013.9
20260507031550 8 0 0.0 3.2 0.00 0.03 0.00 92 1014.0
20260507030055 8 84 0.0 3.2 0.00 0.03 0.00 92 1014.0
20260507024602 8 0 0.0 1.6 0.00 0.03 0.00 91 1014.0